• In Russia
  • List of Countries
  • For 7 days
  • Water Temperature
  • Satellite Maps
  • Weather Map
  • Weather Widgets
  • user-avatar
    Login

    Hourly Weather Kiustendil

    Today, 19 January, Saturday

    Time Temperature Precipitation Wind Pressure Humidity
    00:00 -6°C° 0.1 mm 1 mps 620 mmHg 85%
    01:00 -5°C° 0 mm 0 mps 621 mmHg 88%
    02:00 -5°C° 0.2 mm 0 mps 621 mmHg 89%
    03:00 -5°C° 0.2 mm 0 mps 621 mmHg 89%
    04:00 -5°C° 0.2 mm 0 mps 621 mmHg 90%
    05:00 -5°C° 0.2 mm 0 mps 621 mmHg 90%
    06:00 -5°C° 0.2 mm 0 mps 621 mmHg 90%
    07:00 -6°C° 0 mm 0 mps 620 mmHg 91%
    08:00 -5°C° 0.1 mm 0 mps 621 mmHg 93%
    09:00 -4°C° 0.1 mm 0 mps 621 mmHg 95%
    10:00 -3°C° 0.1 mm 0 mps 622 mmHg 98%
    11:00 -3°C° 0.1 mm 0 mps 622 mmHg 97%
    12:00 -2°C° 0.1 mm 0 mps 622 mmHg 96%
    13:00 -2°C° 0.1 mm 0 mps 622 mmHg 95%
    14:00 -2°C° 0 mm 0 mps 621 mmHg 95%
    15:00 -3°C° 0 mm 0 mps 621 mmHg 95%
    16:00 -2°C° 0 mm 1 mps 621 mmHg 94%
    17:00 -3°C° 0 mm 1 mps 621 mmHg 94%
    18:00 -3°C° 0 mm 1 mps 621 mmHg 93%
    19:00 -4°C° 0 mm 1 mps 620 mmHg 93%
    20:00 -4°C° 0.1 mm 1 mps 621 mmHg 93%
    21:00 -4°C° 0.1 mm 1 mps 621 mmHg 93%
    22:00 -4°C° 0.1 mm 1 mps 621 mmHg 92%
    23:00 -4°C° 0 mm 1 mps 621 mmHg 93%

    Tomorrow, 20 January, Sunday

    Time Temperature Precipitation Wind Pressure Humidity
    00:00 -4°C° 0 mm 1 mps 620 mmHg 93%
    01:00 -4°C° 0 mm 1 mps 620 mmHg 94%
    02:00 -3°C° 0.1 mm 1 mps 620 mmHg 94%
    03:00 -3°C° 0.1 mm 1 mps 620 mmHg 94%
    04:00 -3°C° 0.1 mm 1 mps 619 mmHg 95%
    05:00 -3°C° 0.1 mm 1 mps 619 mmHg 95%
    06:00 -3°C° 0.1 mm 1 mps 619 mmHg 95%
    07:00 -3°C° 0.1 mm 1 mps 619 mmHg 95%
    08:00 -2°C° 0 mm 1 mps 620 mmHg 96%
    09:00 -2°C° 0 mm 1 mps 620 mmHg 97%
    10:00 -1°C° 0 mm 1 mps 620 mmHg 98%
    11:00 -1°C° 0.1 mm 1 mps 620 mmHg 97%
    12:00 -1°C° 0.1 mm 1 mps 620 mmHg 97%
    13:00 -1°C° 0.1 mm 1 mps 619 mmHg 97%
    14:00 -1°C° 0.3 mm 1 mps 619 mmHg 97%
    15:00 -2°C° 0.3 mm 1 mps 619 mmHg 97%
    16:00 -2°C° 0.3 mm 1 mps 619 mmHg 97%
    17:00 -2°C° 0 mm 1 mps 619 mmHg 97%
    18:00 -4°C° 0 mm 0 mps 619 mmHg 96%
    19:00 -4°C° 0 mm 0 mps 619 mmHg 96%
    20:00 -5°C° 0 mm 0 mps 619 mmHg 95%
    21:00 -5°C° 0 mm 0 mps 619 mmHg 94%
    22:00 -6°C° 0 mm 0 mps 619 mmHg 94%
    23:00 -6°C° 0 mm 0 mps 619 mmHg 93%

    Day after tomorrow, 21 January, Monday

    Time Temperature Precipitation Wind Pressure Humidity
    00:00 -5°C° 0 mm 0 mps 619 mmHg 93%
    01:00 -5°C° 0 mm 0 mps 619 mmHg 92%
    02:00 -6°C° 0 mm 0 mps 619 mmHg 92%
    03:00 -6°C° 0 mm 0 mps 619 mmHg 91%
    04:00 -6°C° 0 mm 0 mps 619 mmHg 91%
    05:00 -6°C° 0 mm 0 mps 619 mmHg 90%
    06:00 -6°C° 0 mm 0 mps 620 mmHg 90%
    07:00 -6°C° 0 mm 0 mps 620 mmHg 90%
    08:00 -5°C° 0 mm 0 mps 620 mmHg 88%
    09:00 -4°C° 0 mm 0 mps 621 mmHg 87%
    10:00 -3°C° 0 mm 0 mps 621 mmHg 85%
    11:00 -2°C° 0 mm 0 mps 621 mmHg 85%
    12:00 -2°C° 0 mm 0 mps 621 mmHg 84%
    13:00 -2°C° 0 mm 0 mps 621 mmHg 83%
    14:00 -2°C° 0 mm 0 mps 621 mmHg 85%
    15:00 -3°C° 0 mm 0 mps 621 mmHg 87%
    16:00 -4°C° 0 mm 0 mps 620 mmHg 90%
    17:00 -4°C° 0 mm 0 mps 620 mmHg 90%
    18:00 -4°C° 0 mm 0 mps 621 mmHg 90%
    19:00 -4°C° 0 mm 1 mps 621 mmHg 90%
    20:00 -4°C° 0 mm 1 mps 620 mmHg 90%
    21:00 -4°C° 0 mm 1 mps 620 mmHg 90%
    22:00 -4°C° 0 mm 1 mps 620 mmHg 90%
    23:00 -4°C° 0.1 mm 1 mps 620 mmHg 90%

    22 January, Tuesday

    Time Temperature Precipitation Wind Pressure Humidity
    00:00 -4°C° 0.1 mm 1 mps 620 mmHg 90%
    01:00 -4°C° 0.1 mm 1 mps 619 mmHg 90%
    02:00 -4°C° 0.1 mm 1 mps 619 mmHg 91%
    03:00 -4°C° 0.1 mm 1 mps 619 mmHg 92%
    04:00 -4°C° 0.1 mm 1 mps 619 mmHg 93%
    05:00 -4°C° 0.1 mm 1 mps 618 mmHg 93%
    06:00 -4°C° 0.1 mm 1 mps 618 mmHg 93%
    07:00 -4°C° 0.1 mm 1 mps 618 mmHg 94%
    08:00 -5°C° 0.1 mm 2 mps 618 mmHg 93%
    09:00 -4°C° 0.1 mm 2 mps 618 mmHg 91%
    10:00 -3°C° 0.1 mm 2 mps 618 mmHg 90%
    11:00 -3°C° 0.1 mm 2 mps 618 mmHg 90%
    12:00 -3°C° 0.1 mm 2 mps 617 mmHg 90%
    13:00 -2°C° 0.1 mm 3 mps 617 mmHg 90%
    14:00 -3°C° 0.1 mm 2 mps 616 mmHg 92%
    15:00 -3°C° 0.1 mm 2 mps 616 mmHg 93%
    16:00 -4°C° 0.1 mm 2 mps 615 mmHg 95%
    17:00 -4°C° 0 mm 2 mps 615 mmHg 95%
    18:00 -4°C° 0 mm 2 mps 614 mmHg 95%
    19:00 -4°C° 0 mm 2 mps 614 mmHg 96%
    20:00 -4°C° 0 mm 2 mps 614 mmHg 96%
    21:00 -4°C° 0 mm 2 mps 614 mmHg 96%
    22:00 -4°C° 0 mm 2 mps 613 mmHg 96%
    23:00 -4°C° 0.1 mm 2 mps 613 mmHg 96%

    23 January, Wednesday

    Time Temperature Precipitation Wind Pressure Humidity
    00:00 -5°C° 0.1 mm 2 mps 612 mmHg 95%
    01:00 -3°C° 0.1 mm 1 mps 612 mmHg 95%
    02:00 -5°C° 0.4 mm 2 mps 611 mmHg 94%
    03:00 -5°C° 0.4 mm 2 mps 611 mmHg 94%
    04:00 -4°C° 0.4 mm 2 mps 611 mmHg 94%
    05:00 -4°C° 0.2 mm 2 mps 611 mmHg 94%
    06:00 -4°C° 0.2 mm 2 mps 611 mmHg 95%
    07:00 -4°C° 0.2 mm 2 mps 611 mmHg 96%
    08:00 -3°C° 0.1 mm 2 mps 611 mmHg 94%
    09:00 -4°C° 0.1 mm 3 mps 611 mmHg 92%
    10:00 -2°C° 0.1 mm 3 mps 612 mmHg 91%
    11:00 -3°C° 0.2 mm 4 mps 612 mmHg 89%
    12:00 -2°C° 0.2 mm 4 mps 612 mmHg 88%
    13:00 -2°C° 0.2 mm 4 mps 611 mmHg 86%
    14:00 -2°C° 0.1 mm 3 mps 611 mmHg 88%
    15:00 -2°C° 0.1 mm 3 mps 611 mmHg 89%
    16:00 -3°C° 0.1 mm 2 mps 611 mmHg 91%
    17:00 -3°C° 0 mm 2 mps 611 mmHg 91%
    18:00 -4°C° 0 mm 2 mps 612 mmHg 91%
    19:00 -4°C° 0 mm 2 mps 612 mmHg 91%
    20:00 -3°C° 0 mm 1 mps 612 mmHg 91%
    21:00 -3°C° 0 mm 1 mps 612 mmHg 91%
    22:00 -4°C° 0 mm 0 mps 612 mmHg 91%
    23:00 -4°C° 0 mm 1 mps 611 mmHg 90%

    24 January, Thursday

    Time Temperature Precipitation Wind Pressure Humidity
    00:00 -4°C° 0 mm 1 mps 611 mmHg 90%
    01:00 -4°C° 0 mm 1 mps 611 mmHg 90%
    02:00 -4°C° 0 mm 1 mps 611 mmHg 89%
    03:00 -6°C° 0 mm 1 mps 611 mmHg 89%
    04:00 -6°C° 0 mm 1 mps 611 mmHg 89%
    05:00 -7°C° 0 mm 2 mps 611 mmHg 89%
    06:00 -7°C° 0 mm 2 mps 611 mmHg 90%
    07:00 -7°C° 0 mm 2 mps 611 mmHg 90%
    08:00 -6°C° 0 mm 2 mps 611 mmHg 89%
    09:00 -5°C° 0 mm 2 mps 611 mmHg 88%
    10:00 -4°C° 0 mm 2 mps 611 mmHg 86%
    11:00 -4°C° 0.1 mm 2 mps 611 mmHg 86%
    12:00 -4°C° 0.1 mm 2 mps 611 mmHg 86%
    13:00 -4°C° 0.1 mm 2 mps 610 mmHg 85%
    14:00 -4°C° 0.3 mm 2 mps 610 mmHg 87%
    15:00 -5°C° 0.3 mm 2 mps 610 mmHg 89%
    16:00 -3°C° 0.3 mm 1 mps 610 mmHg 91%
    17:00 -4°C° 0 mm 1 mps 610 mmHg 92%
    18:00 -4°C° 0 mm 1 mps 610 mmHg 93%
    19:00 -6°C° 0 mm 1 mps 611 mmHg 94%
    20:00 -7°C° 0 mm 1 mps 611 mmHg 94%
    21:00 -7°C° 0 mm 1 mps 611 mmHg 94%
    22:00 -7°C° 0 mm 1 mps 611 mmHg 93%
    23:00 -7°C° 0 mm 1 mps 611 mmHg 93%
    Show more